User: anonymous   Login
Location: Unspecified
(0.0000°N, 0.0000°E)
Time: 05:22:49
(UTC+00:00)
Language:

STARLINK-3861 - Orbit

View from above orbital plane
View from above orbital plane
View from above satellite
View from above satellite

Ground track
Ground track

The orbit is defined by the following mean orbital elements,

1 52503U          26145.47955111 +.00000000 +00000-0 +31746-4 0 00004
2 52503  53.2127  54.2803 0001408 100.9816 259.1334 15.08840755    07
Epoch (UTC): 25 May 2026 11:30:33
Eccentricity: 0.0001408
inclination: 53.2127°
perigee height: 539 km
apogee height: 541 km
right ascension of ascending node: 54.2803°
argument of perigee: 100.9816°
revolutions per day: 15.08840755
mean anomaly at epoch: 259.1334°

The dashed part of the orbit path shows where the satellite is in the earth's shadow,  

DLR